DLH797 VHHH-EDDF

Flight info

Callsign DLH797
Flight time N/A
Altitude 34100
Route BEKOL A461 SHL W22 TEPID W24 OSNOV G586 QP B330 ELKAL W179 IGNAK/K0924S1070 W179 WFX/K0926S1040 W179 OMBON W195 VIDEK/K0917S1070 W195 LAXAL/K0915S1100 W195 IDOPA W197 ANDIM B215 IBANO G470 AKLAS W192 FKG A368 SARIN/K0898F380 N161 GASBI/N0492F380 N161 ABTEK/N0491F400 N161 LEYLA T916 MATAL DCT TABAS DCT REBLO UM11 CRM UL746 ODERO DCT OPT DCT IRLOX DCT BALUX DCT TEKNO DCT ABETI DCT SUBEN DCT AKINI T161 DEBHI DEBHI1B
Aircraft A359/H-SDE2E3GHIJ3J4J5LM1ORWXY/LB1D1

Departure

Time 2026-05-04 19:28
Airport Hong Kong International Airport (VHHH)

Arrival

Time N/A
Airport Frankfurt Main Airport (EDDF)
Time Latitude Longitude Altitude Speed Heading
2026-05-04 19:00 22.31349 113.93134 38 ft 0 kts 341°
2026-05-04 19:16 22.31331 113.93141 36 ft 4 kts 341°
2026-05-04 19:16 22.31306 113.93151 36 ft 3 kts 341°
2026-05-04 19:16 22.31286 113.93158 36 ft 4 kts 330°
2026-05-04 19:17 22.31268 113.93175 38 ft 4 kts 277°
2026-05-04 19:17 22.31273 113.93200 34 ft 4 kts 251°
2026-05-04 19:17 22.31280 113.93223 35 ft 1 kts 251°
2026-05-04 19:20 22.31277 113.93213 35 ft 4 kts 251°
2026-05-04 19:20 22.31259 113.93158 38 ft 12 kts 251°
2026-05-04 19:20 22.31189 113.93087 38 ft 17 kts 176°
2026-05-04 19:21 22.31058 113.93130 38 ft 22 kts 161°
2026-05-04 19:21 22.30939 113.93172 38 ft 9 kts 173°
2026-05-04 19:21 22.30885 113.93142 38 ft 11 kts 236°
2026-05-04 19:21 22.30853 113.93055 38 ft 14 kts 251°
2026-05-04 19:22 22.30813 113.92932 38 ft 20 kts 251°
2026-05-04 19:22 22.30762 113.92772 38 ft 25 kts 251°
2026-05-04 19:22 22.30700 113.92579 38 ft 29 kts 251°
2026-05-04 19:22 22.30628 113.92358 38 ft 33 kts 251°
2026-05-04 19:23 22.30573 113.92184 38 ft 19 kts 251°
2026-05-04 19:23 22.30524 113.92032 38 ft 24 kts 251°
2026-05-04 19:23 22.30463 113.91846 38 ft 28 kts 250°
2026-05-04 19:23 22.30399 113.91648 38 ft 25 kts 250°
2026-05-04 19:24 22.30342 113.91473 38 ft 25 kts 251°
2026-05-04 19:24 22.30286 113.91299 38 ft 24 kts 251°
2026-05-04 19:24 22.30230 113.91125 38 ft 24 kts 251°
2026-05-04 19:24 22.30174 113.90952 38 ft 24 kts 251°
2026-05-04 19:25 22.30119 113.90779 38 ft 24 kts 251°
2026-05-04 19:25 22.30063 113.90607 38 ft 24 kts 251°
2026-05-04 19:25 22.30008 113.90435 38 ft 24 kts 251°
2026-05-04 19:25 22.29953 113.90266 38 ft 24 kts 251°
2026-05-04 19:26 22.29903 113.90110 36 ft 22 kts 251°
2026-05-04 19:26 22.29854 113.89958 36 ft 21 kts 250°
2026-05-04 19:26 22.29824 113.89887 36 ft 7 kts 226°
2026-05-04 19:26 22.29769 113.89877 36 ft 10 kts 171°
2026-05-04 19:27 22.29691 113.89913 33 ft 14 kts 136°
2026-05-04 19:27 22.29686 113.90009 34 ft 15 kts 72°
2026-05-04 19:27 22.29776 113.90282 34 ft 65 kts 70°
2026-05-04 19:27 22.29979 113.90917 35 ft 113 kts 70°
2026-05-04 19:28 22.30285 113.91867 37 ft 154 kts 71°
2026-05-04 19:28 22.30650 113.92991 467 ft 150 kts 70°
2026-05-04 19:28 22.31008 113.94109 715 ft 167 kts 71°
2026-05-04 19:28 22.31379 113.95299 1158 ft 167 kts 73°
2026-05-04 19:29 22.31771 113.96529 1412 ft 180 kts 71°
2026-05-04 19:29 22.32202 113.97852 1654 ft 193 kts 71°
2026-05-04 19:29 22.32656 113.99249 1950 ft 201 kts 71°
2026-05-04 19:29 22.33126 114.00690 2350 ft 205 kts 72°
2026-05-04 19:30 22.33582 114.02156 2741 ft 209 kts 75°
2026-05-04 19:30 22.33809 114.03723 3077 ft 214 kts 91°
2026-05-04 19:30 22.33561 114.05314 3485 ft 217 kts 110°
2026-05-04 19:30 22.32822 114.06742 3866 ft 220 kts 131°
2026-05-04 19:31 22.31676 114.07843 4240 ft 226 kts 148°
2026-05-04 19:31 22.30207 114.08564 4457 ft 239 kts 166°
2026-05-04 19:31 22.28545 114.08796 4817 ft 245 kts 180°
2026-05-04 19:31 22.26805 114.08779 5090 ft 257 kts 183°
2026-05-04 19:32 22.24985 114.08733 5439 ft 265 kts 184°
2026-05-04 19:32 22.23122 114.08694 5890 ft 270 kts 184°
2026-05-04 19:32 22.21230 114.08664 6331 ft 275 kts 183°
2026-05-04 19:32 22.19301 114.08776 6790 ft 281 kts 172°
2026-05-04 19:33 22.17498 114.09614 7305 ft 287 kts 145°
2026-05-04 19:33 22.16214 114.11263 7785 ft 293 kts 118°
2026-05-04 19:33 22.15703 114.13397 8213 ft 298 kts 96°
2026-05-04 19:33 22.15559 114.15624 7987 ft 299 kts 94°
2026-05-04 19:34 22.15455 114.17890 8005 ft 305 kts 94°
2026-05-04 19:34 22.15343 114.20145 8015 ft 307 kts 94°
2026-05-04 19:34 22.15523 114.22473 8184 ft 309 kts 76°
2026-05-04 19:34 22.16420 114.24566 8664 ft 308 kts 50°
2026-05-04 19:35 22.18047 114.26003 9265 ft 303 kts 20°
2026-05-04 19:35 22.20068 114.26448 9765 ft 295 kts 350°
2026-05-04 19:35 22.22029 114.25931 10222 ft 292 kts 335°
2026-05-04 19:35 22.23973 114.25153 10463 ft 305 kts 334°
2026-05-04 19:36 22.26002 114.24325 10713 ft 318 kts 335°
2026-05-04 19:36 22.28119 114.23481 10953 ft 331 kts 335°
2026-05-04 19:36 22.30320 114.22616 11187 ft 342 kts 335°
2026-05-04 19:36 22.32597 114.21730 11419 ft 354 kts 336°
2026-05-04 19:37 22.34952 114.20818 11655 ft 364 kts 336°
2026-05-04 19:37 22.35800 114.20489 11733 ft 368 kts 336°
2026-05-04 19:37 22.37540 114.19817 11886 ft 375 kts 336°
2026-05-04 19:37 22.39991 114.18871 12036 ft 384 kts 336°
2026-05-04 19:38 22.42527 114.17892 12251 ft 390 kts 336°
2026-05-04 19:38 22.45096 114.16898 12559 ft 393 kts 336°
2026-05-04 19:38 22.47684 114.15901 12946 ft 396 kts 336°
2026-05-04 19:38 22.50294 114.14892 13278 ft 400 kts 336°
2026-05-04 19:39 22.52921 114.13878 13662 ft 402 kts 336°